• In Italy
  • List of Countries
  • For 7 days
  • Water Temperature
  • Satellite Maps
  • Weather Map
  • Weather Widgets
  • user-avatar
    Login

    Hourly Weather Lewis

    Today, 15 November, Thursday

    Time Temperature Precipitation Wind Pressure Humidity
    00:00 +12°C° 0.1 mm 14 mps 742 mmHg 85%
    01:00 +10°C° 0.1 mm 13 mps 743 mmHg 83%
    02:00 +10°C° 0.1 mm 12 mps 743 mmHg 81%
    03:00 +9°C° 0.1 mm 11 mps 743 mmHg 79%
    04:00 +9°C° 0.1 mm 10 mps 744 mmHg 78%
    05:00 +10°C° 0.1 mm 9 mps 744 mmHg 78%
    06:00 +10°C° 0.1 mm 9 mps 744 mmHg 77%
    07:00 +9°C° 0.3 mm 8 mps 744 mmHg 78%
    08:00 +9°C° 0.3 mm 7 mps 744 mmHg 79%
    09:00 +9°C° 0.3 mm 6 mps 744 mmHg 80%
    10:00 +8°C° 1.9 mm 5 mps 744 mmHg 84%
    11:00 +7°C° 1.9 mm 4 mps 743 mmHg 87%
    12:00 +7°C° 1.9 mm 4 mps 743 mmHg 91%
    13:00 +7°C° 0.6 mm 5 mps 743 mmHg 89%
    14:00 +7°C° 0.6 mm 6 mps 743 mmHg 88%
    15:00 +7°C° 0.6 mm 8 mps 743 mmHg 86%
    16:00 +7°C° 0.4 mm 10 mps 743 mmHg 85%
    17:00 +8°C° 0.4 mm 12 mps 743 mmHg 83%
    18:00 +8°C° 0.4 mm 14 mps 744 mmHg 81%
    19:00 +8°C° 0.2 mm 14 mps 745 mmHg 77%
    20:00 +8°C° 0.2 mm 14 mps 745 mmHg 73%
    21:00 +8°C° 0.2 mm 14 mps 746 mmHg 70%
    22:00 +8°C° 0 mm 13 mps 747 mmHg 71%
    23:00 +8°C° 0 mm 13 mps 748 mmHg 72%

    Tomorrow, 16 November, Friday

    Time Temperature Precipitation Wind Pressure Humidity
    00:00 +8°C° 0 mm 12 mps 749 mmHg 73%
    01:00 +8°C° 0 mm 11 mps 750 mmHg 74%
    02:00 +8°C° 0 mm 10 mps 751 mmHg 74%
    03:00 +8°C° 0 mm 9 mps 751 mmHg 74%
    04:00 +8°C° 0 mm 9 mps 752 mmHg 75%
    05:00 +9°C° 0 mm 8 mps 752 mmHg 76%
    06:00 +7°C° 0 mm 8 mps 752 mmHg 77%
    07:00 +9°C° 0 mm 8 mps 753 mmHg 77%
    08:00 +9°C° 0 mm 8 mps 753 mmHg 77%
    09:00 +8°C° 0 mm 9 mps 754 mmHg 77%
    10:00 +9°C° 0 mm 8 mps 754 mmHg 79%
    11:00 +9°C° 0 mm 8 mps 754 mmHg 80%
    12:00 +10°C° 0 mm 8 mps 754 mmHg 81%
    13:00 +10°C° 0 mm 8 mps 754 mmHg 83%
    14:00 +10°C° 0 mm 8 mps 754 mmHg 85%
    15:00 +11°C° 0 mm 8 mps 754 mmHg 87%
    16:00 +11°C° 0 mm 8 mps 754 mmHg 87%
    17:00 +11°C° 0 mm 8 mps 755 mmHg 87%
    18:00 +11°C° 0 mm 8 mps 755 mmHg 87%
    19:00 +10°C° 0 mm 8 mps 755 mmHg 88%
    20:00 +10°C° 0 mm 7 mps 756 mmHg 88%
    21:00 +10°C° 0 mm 7 mps 756 mmHg 89%
    22:00 +10°C° 0 mm 6 mps 756 mmHg 88%
    23:00 +10°C° 0 mm 6 mps 757 mmHg 87%

    Day after tomorrow, 17 November, Saturday

    Time Temperature Precipitation Wind Pressure Humidity
    00:00 +10°C° 0 mm 6 mps 757 mmHg 86%
    01:00 +10°C° 0 mm 6 mps 757 mmHg 86%
    02:00 +10°C° 0 mm 6 mps 757 mmHg 85%
    03:00 +9°C° 0 mm 5 mps 757 mmHg 85%
    04:00 +9°C° 0 mm 6 mps 757 mmHg 85%
    05:00 +9°C° 0 mm 6 mps 757 mmHg 86%
    06:00 +9°C° 0 mm 6 mps 757 mmHg 86%
    07:00 +9°C° 0 mm 6 mps 757 mmHg 85%
    08:00 +9°C° 0 mm 6 mps 758 mmHg 85%
    09:00 +9°C° 0 mm 6 mps 758 mmHg 85%
    10:00 +10°C° 0 mm 6 mps 758 mmHg 81%
    11:00 +10°C° 0 mm 6 mps 758 mmHg 77%
    12:00 +11°C° 0 mm 6 mps 758 mmHg 73%
    13:00 +10°C° 0 mm 6 mps 758 mmHg 71%
    14:00 +10°C° 0 mm 6 mps 758 mmHg 69%
    15:00 +10°C° 0 mm 5 mps 759 mmHg 68%
    16:00 +10°C° 0 mm 5 mps 759 mmHg 69%
    17:00 +10°C° 0 mm 5 mps 759 mmHg 70%
    18:00 +9°C° 0 mm 5 mps 759 mmHg 71%
    19:00 +9°C° 0 mm 5 mps 759 mmHg 71%
    20:00 +9°C° 0 mm 5 mps 759 mmHg 71%
    21:00 +9°C° 0 mm 5 mps 760 mmHg 72%
    22:00 +9°C° 0 mm 5 mps 760 mmHg 71%
    23:00 +8°C° 0 mm 5 mps 760 mmHg 70%

    18 November, Sunday

    Time Temperature Precipitation Wind Pressure Humidity
    00:00 +8°C° 0 mm 5 mps 760 mmHg 69%
    01:00 +8°C° 0 mm 5 mps 760 mmHg 68%
    02:00 +8°C° 0 mm 5 mps 760 mmHg 68%
    03:00 +8°C° 0 mm 5 mps 760 mmHg 67%
    04:00 +8°C° 0 mm 5 mps 760 mmHg 67%
    05:00 +8°C° 0 mm 5 mps 761 mmHg 67%
    06:00 +8°C° 0 mm 5 mps 761 mmHg 67%
    07:00 +8°C° 0 mm 5 mps 761 mmHg 68%
    08:00 +8°C° 0 mm 5 mps 761 mmHg 68%
    09:00 +8°C° 0 mm 5 mps 761 mmHg 68%
    10:00 +8°C° 0 mm 5 mps 762 mmHg 67%
    11:00 +9°C° 0 mm 5 mps 762 mmHg 66%
    12:00 +9°C° 0 mm 5 mps 762 mmHg 64%
    13:00 +10°C° 0 mm 4 mps 762 mmHg 65%
    14:00 +10°C° 0 mm 4 mps 762 mmHg 66%
    15:00 +10°C° 0 mm 4 mps 762 mmHg 67%
    16:00 +10°C° 0 mm 4 mps 762 mmHg 68%
    17:00 +8°C° 0 mm 4 mps 762 mmHg 68%
    18:00 +8°C° 0 mm 4 mps 762 mmHg 68%
    19:00 +8°C° 0 mm 4 mps 763 mmHg 69%
    20:00 +8°C° 0 mm 4 mps 763 mmHg 71%
    21:00 +8°C° 0 mm 4 mps 763 mmHg 72%
    22:00 +7°C° 0 mm 4 mps 763 mmHg 72%
    23:00 +7°C° 0 mm 4 mps 763 mmHg 72%

    19 November, Monday

    Time Temperature Precipitation Wind Pressure Humidity
    00:00 +7°C° 0 mm 4 mps 763 mmHg 72%
    01:00 +7°C° 0 mm 4 mps 763 mmHg 73%
    02:00 +7°C° 0 mm 4 mps 763 mmHg 73%
    03:00 +7°C° 0 mm 5 mps 763 mmHg 74%
    04:00 +7°C° 0 mm 5 mps 763 mmHg 76%
    05:00 +7°C° 0 mm 5 mps 763 mmHg 78%
    06:00 +5°C° 0 mm 6 mps 763 mmHg 80%
    07:00 +5°C° 0 mm 6 mps 763 mmHg 81%
    08:00 +5°C° 0 mm 6 mps 763 mmHg 81%
    09:00 +5°C° 0 mm 6 mps 763 mmHg 82%
    10:00 +7°C° 0 mm 6 mps 763 mmHg 80%
    11:00 +7°C° 0 mm 6 mps 763 mmHg 78%
    12:00 +8°C° 0 mm 6 mps 763 mmHg 76%
    13:00 +7°C° 0 mm 6 mps 763 mmHg 75%
    14:00 +7°C° 0 mm 6 mps 763 mmHg 74%
    15:00 +7°C° 0 mm 6 mps 763 mmHg 74%
    16:00 +7°C° 0 mm 6 mps 763 mmHg 74%
    17:00 +6°C° 0 mm 7 mps 763 mmHg 74%
    18:00 +5°C° 0 mm 7 mps 763 mmHg 74%
    19:00 +5°C° 0 mm 7 mps 763 mmHg 74%
    20:00 +5°C° 0 mm 7 mps 763 mmHg 74%
    21:00 +4°C° 0 mm 7 mps 764 mmHg 74%
    22:00 +4°C° 0 mm 6 mps 764 mmHg 74%
    23:00 +4°C° 0 mm 6 mps 764 mmHg 74%

    20 November, Tuesday

    Time Temperature Precipitation Wind Pressure Humidity
    00:00 +4°C° 0 mm 6 mps 764 mmHg 75%
    01:00 +4°C° 0 mm 6 mps 764 mmHg 74%
    02:00 +4°C° 0 mm 6 mps 764 mmHg 74%
    03:00 +3°C° 0 mm 6 mps 764 mmHg 73%
    04:00 +3°C° 0 mm 6 mps 764 mmHg 73%
    05:00 +4°C° 0 mm 6 mps 764 mmHg 73%
    06:00 +4°C° 0 mm 6 mps 764 mmHg 73%
    07:00 +4°C° 0 mm 6 mps 764 mmHg 74%
    08:00 +5°C° 0 mm 5 mps 765 mmHg 74%
    09:00 +5°C° 0 mm 5 mps 765 mmHg 75%
    10:00 +5°C° 0 mm 6 mps 765 mmHg 76%
    11:00 +7°C° 0 mm 6 mps 765 mmHg 76%
    12:00 +7°C° 0 mm 6 mps 764 mmHg 77%
    13:00 +7°C° 0 mm 6 mps 764 mmHg 77%
    14:00 +6°C° 0 mm 7 mps 764 mmHg 78%
    15:00 +8°C° 0 mm 7 mps 764 mmHg 79%
    16:00 +7°C° 0 mm 8 mps 764 mmHg 79%
    17:00 +7°C° 0 mm 8 mps 763 mmHg 79%
    18:00 +7°C° 0 mm 8 mps 763 mmHg 79%
    19:00 +7°C° 0 mm 8 mps 763 mmHg 79%
    20:00 +7°C° 0 mm 8 mps 763 mmHg 79%
    21:00 +7°C° 0 mm 8 mps 763 mmHg 79%
    22:00 +7°C° 0 mm 8 mps 763 mmHg 79%
    23:00 +7°C° 0 mm 8 mps 762 mmHg 80%
    Show more